Location: *
(46.4000°N, 12.6667°E)
Time: 04:45:09
(UTC+00:00)

Envisat - Pass Details

Date: 06 December 2021
Orbit: 764 x 766 km, 98.2° (Epoch: 16 January)

Event Time Altitude Azimuth Distance (km) Brightness Sun altitude
Rises 04:16:33 0° 13° (NNE) 3,244 6.3 -23.5°
Reaches altitude 10° 04:18:52 10° 14° (NNE) 2,313 5.5 -23.1°
Maximum altitude 04:23:59 88° 103° (ESE) 772 2.9 -22.2°
Drops below altitude 10° 04:29:03 10° 194° (SSW) 2,295 5.4 -21.3°
Sets 04:31:20 0° 195° (SSW) 3,216 6.2 -21.0°
